Location: Newark
(53.4333°N, 36.0000°E)
Time: 10:23:28
(UTC+00:00)

ISS - Pass Details

Date: 26 September 2019
Orbit: 411 x 421 km, 51.6° (Epoch: 23 October)

Event Time Altitude Azimuth Distance (km) Brightness Sun altitude
Rises 17:45:22 0° 266° (W) 2,345 1.0 -20.9°
Reaches altitude 10° 17:47:28 10° 263° (W) 1,483 -0.2 -21.1°
Enters shadow 17:50:01 47° 240° (WSW) 556 -3.0 -21.5°
